CDT,Max TemperatureF,Mean TemperatureF,Min TemperatureF,Max Dew PointF,MeanDew PointF,Min DewpointF,Max Humidity, Mean Humidity, Min Humidity, Max Sea Level PressureIn, Mean Sea Level PressureIn, Min Sea Level PressureIn, Max VisibilityMiles, Mean VisibilityMiles, Min VisibilityMiles, Max Wind SpeedMPH, Mean Wind SpeedMPH, Max Gust SpeedMPH,PrecipitationIn, CloudCover, Events, WindDirDegrees
2013-10-1,75,60,44,54,45,34,86,56,25,29.96,29.79,29.71,10,10,10,23,11,29,T,0,,244
2013-10-2,71,52,33,42,37,33,100,63,26,30.11,30.05,29.98,10,10,10,12,5,16,0.05,1,,243
2013-10-3,62,54,45,54,49,44,100,84,67,30.06,29.98,29.94,10,8,2,16,6,20,0.75,6,Rain-Thunderstorm,62
2013-10-4,55,53,51,52,51,48,100,93,86,30.10,30.06,29.99,10,8,2,16,9,21,0.28,8,Rain,66
2013-10-5,57,54,51,55,53,50,100,97,93,30.07,29.92,29.71,10,5,1,24,11,31,0.97,8,Rain-Thunderstorm,91
2013-10-6,59,53,46,54,48,40,100,76,51,29.73,29.70,29.66,10,9,2,15,7,18,0.03,7,Rain,272
2013-10-7,59,48,36,45,40,35,100,72,43,30.07,29.86,29.70,10,9,2,18,6,26,0.00,3,Rain,298
2013-10-8,71,52,32,44,40,32,100,68,35,30.13,30.07,30.01,10,10,8,20,6,30,0.00,0,,189
2013-10-9,70,59,47,48,46,42,77,61,44,30.16,30.12,30.05,10,10,10,18,8,25,0.00,0,,207
2013-10-10,70,54,37,46,40,36,100,67,33,30.18,30.14,30.08,10,7,0,15,4,20,0.00,0,Fog,157
2013-10-11,70,55,40,53,46,39,100,77,53,30.09,30.03,29.88,10,6,0,22,8,32,0.00,2,Fog,137
2013-10-12,65,56,47,55,46,36,78,61,44,30.09,29.91,29.83,10,10,10,22,13,31,0.00,6,,211
2013-10-13,56,44,32,43,37,30,92,65,38,30.46,30.30,30.11,10,10,9,15,5,20,T,5,Rain,282
2013-10-14,56,42,28,41,32,26,100,73,46,30.50,30.40,30.20,10,8,0,16,6,21,0.00,1,Fog,115
2013-10-15,52,49,45,52,48,40,100,91,82,30.18,29.82,29.71,10,5,2,18,8,23,0.79,8,Rain,136
2013-10-16,47,37,27,45,39,27,100,85,70,29.94,29.83,29.70,10,7,2,10,6,17,0.07,7,Rain,316
2013-10-17,54,40,25,37,30,25,100,75,50,29.93,29.85,29.78,10,4,0,12,3,16,0.03,3,Fog,272
2013-10-18,43,35,27,41,35,26,100,95,89,29.92,29.83,29.74,10,5,0,15,3,21,0.36,5,Fog-Rain,311
2013-10-19,46,37,28,36,33,28,100,79,58,29.87,29.74,29.66,10,9,4,22,5,26,0.08,7,Rain,242
2013-10-20,42,37,31,34,32,28,100,83,65,29.83,29.73,29.65,10,6,0,13,4,17,0.29,8,Fog-Rain-Snow,177
2013-10-21,34,31,27,34,27,21,100,82,63,29.85,29.79,29.65,10,6,0,22,13,31,0.04,8,Fog-Snow,275
2013-10-22,38,34,30,30,28,24,100,80,59,29.99,29.89,29.79,10,6,1,21,7,30,0.03,8,Snow,292
2013-10-23,37,32,27,27,24,18,85,66,47,30.01,29.96,29.90,10,10,9,16,8,22,T,8,,290
2013-10-24,38,31,24,28,26,20,92,76,59,30.27,30.09,29.97,10,8,2,15,8,23,T,7,Snow,288
2013-10-25,49,36,23,36,25,21,88,68,48,30.30,30.07,29.68,10,10,10,23,11,33,T,4,,240
2013-10-26,47,41,34,35,30,25,82,68,54,30.05,29.85,29.68,10,9,2,24,8,32,0.03,8,Rain-Snow,309
2013-10-27,51,41,31,31,29,27,89,66,42,30.18,29.97,29.82,10,10,10,20,9,25,T,5,,269
2013-10-28,38,30,21,29,20,16,81,61,40,30.51,30.38,30.16,10,10,4,17,5,22,T,2,Snow,47
2013-10-29,35,28,20,34,26,16,96,79,61,30.51,30.33,30.16,10,8,1,10,4,14,0.03,6,Rain-Snow,116
2013-10-30,48,42,35,48,41,34,100,96,92,30.19,29.98,29.76,6,2,0,13,5,17,0.09,8,Fog-Rain,147
2013-10-31,52,48,43,52,49,43,100,98,96,29.73,29.42,29.21,10,3,0,10,2,17,0.22,8,Fog-Rain,329